STARLINK-1788, 46689

Orbit data source: Space-Track

STARLINK-1788, 46689 is a payload satellite owned by SpaceX/Seattle (US) in LEO that was launched on Sun, 18 Oct 2020 UTC via an FALCON 9 launch vehicle from the Air Force Eastern Test Range (AFETR). Payloads include a variety of satellites, spacecraft, and rockets equipped with specific instruments for various scientific and technological missions. These include communications satellites like Starlink; space stations such as the ISS; scientific satellites like the Hubble; Earth observation satellites from companies like Planet Labs, Umbra, and HawkEye 360; GPS; miniature CubeSats for education and research; and military/defense satellites.

Loading next visibility...
STARLINK-1788 details
Identifier
46689, 2020-073V
Orbit
LEO
Last TLE update6 hours ago
Origin
Flag of USSpaceX/Seattle (US)
ManufacturerSpaceX/Seattle
MissionOperational Commercial Communications
Bus & MotorSTARLINK, Unknown motor
Mass260 kg wet, ~248 kg dry
Launch date (UTC)
2020-10-18 (4 years ago)
Launch vehicle
FALCON 9
Launch site
Air Force Eastern Test Range (AFETR)
Object type
Payload
Rocket body
Debris
Shape & HBRBox + 1 Pan, 8.86 m
Radar Cross Section13.562 m², Large (>1 m²)

Expand to show TLE details & history

TLE from 6 hours ago
0 STARLINK-1788
1 46689U 20073V   24361.45882981  .00010603  00000-0  72909-3 0  9996
2 46689  53.0554  64.5666 0001537  92.8101 267.3064 15.06429018231333
Epoch: 2024-12-26T11:00Z
Definitive object data (Epoch: 2024-12-26T11:00:42.895Z)
Latitude-0.00002°
Longitude163.94993°
Altitude548.052 km
Speed7.589 km/s
True Right ascension04h 18m 15s
True Declination0° 00' 00"
Sunlit
Object was in full shadow at TLE epoch
Visualization TLE readout
Latitude-44.58546°
Longitude30.34868°
Altitude563.059 km
Speed7.579 km/s
Apparent Right ascension23h 45m 55s
Apparent Declination-65° 59' 15"
Sunlit
Object is in daylight
Visualization observer readout
Local Sidereal Time16:13:30
Azimuth147.963° SSE
Elevation-45.121°
Doppler factor1
Orbital elements
Apogee altitude548.458 km
Perigee altitude546.329 km
Semi-major axis6,925.53 km
Eccentricity0.0001537
Inclination53.0554°
RAAN64.5666°
Arg. of periapsis92.8101°
True anomaly267.28881°
Mean anomaly267.3064°
Eccentric anomaly267.2976°
Mean motion3.76586 °/min
BSTAR0.00072909
Orbital period95.6 mins
Loading maneuver chart data...
Loading historical data...
Loading historical data...
Loading historical data...
Loading historical data...
Loading historical data...
Loading historical data...
Loading historical data...

STARLINK-1788 Visibility forecast

Observer location: undefined°, undefined

Span
Click to sort rows by Start time (UTC) header in descending order
Start Az.
Max El. time (UTC)
Max El. Az.
Max El.
End time (UTC)
End Az.
6 mins2024-12-27 06:16:16.387Z187.327° SSW2024-12-27 06:19:16.387Z131.029° SE26.094°2024-12-27 06:22:16.387Z74.515° E
6 mins2024-12-27 07:56:16.387Z266.599° W2024-12-27 07:58:16.387Z310.946° NW32.572°2024-12-27 08:02:16.387Z37.623° NE
5 mins2024-12-27 12:58:16.387Z336.871° NNW2024-12-27 13:00:16.387Z22.635° NE29.406°2024-12-27 13:03:16.387Z89.717° E
6 mins2024-12-27 14:37:16.387Z287.919° WNW2024-12-27 14:40:16.387Z218.077° SW30.871°2024-12-27 14:43:16.387Z162.845° S
|